Temperature
9 10 11 11 10 11 11 11 11 11 10 10 10 11 11 10 10 10 10 9 8 8 8 7 8 8 8 8 8 8 8 8 8 8 8 8 8 8 8 8 8 8 8 8
10 10 10 9 9 9 10 10 11 10 9 9 10 10 11 10 10 9 9 9 8 8 7 7 7 7 7 7 8 8 8 8 7 7 7 7 7 7 7 7 7 7 7 7
10 9 8 9 9 9 9 10 10 10 9 9 9 11 11 10 9 8 8 8 8 7 7 7 7 7 7 7 7 7 7 7 7 7 7 7 7 6 6 6 7 7 6 6
9 8 8 8 8 8 9 9 8 8 9 9 9 10 11 10 10 9 9 8 7 7 7 6 7 7 7 7 7 7 7 7 7 6 6 6 6 6 6 6 6 6 6 6
8 7 8 8 8 8 8 7 7 7 8 8 8 9 11 10 10 10 9 8 7 6 6 6 6 6 6 6 6 6 6 6 6 6 6 6 6 6 5 5 5 5 6 6
7 7 7 7 7 7 7 7 7 7 7 8 8 9 11 11 10 9 9 7 6 5 5 5 6 6 6 6 6 6 6 6 6 6 6 5 5 5 5 5 5 5 5 5
7 7 6 6 7 7 7 8 8 9 8 9 7 8 10 10 8 8 7 6 5 5 5 5 5 5 5 5 5 5 5 5 5 5 5 5 5 5 4 4 4 4 4 4
8 8 6 6 7 7 7 8 8 9 10 10 7 8 10 8 7 6 6 5 5 4 4 4 4 5 5 5 5 5 5 5 5 5 5 5 4 4 4 4 4 4 4 4
8 8 5 5 5 6 7 7 7 7 6 7 9 9 9 8 7 6 5 5 4 4 4 4 4 4 4 4 4 4 4 4 4 4 4 4 4 4 4 3 3 3 3 3
7 6 6 5 5 5 6 6 6 7 7 9 9 9 10 8 7 6 5 5 4 4 3 3 3 4 4 4 4 4 4 4 4 4 4 4 4 4 3 3 3 3 3 3
5 5 5 5 5 6 5 5 5 6 6 8 9 10 9 7 7 6 5 4 4 3 3 3 3 3 3 3 3 3 3 3 3 3 3 3 3 3 3 3 3 3 2 2
4 5 5 5 4 4 5 5 5 6 5 5 7 9 7 6 6 5 5 4 3 3 3 3 3 3 3 3 3 3 3 3 3 3 3 3 3 3 3 2 2 2 2 2
3 4 5 6 4 3 3 4 4 4 4 5 7 8 6 5 5 5 4 3 3 3 3 2 2 2 2 2 2 2 2 2 2 2 2 2 2 2 2 2 2 2 2 2
3 3 5 7 7 5 3 3 3 3 5 5 6 7 6 6 5 5 4 3 2 2 2 2 2 2 2 2 2 2 2 2 2 2 2 2 2 1 1 1 1 1 1 1
2 3 3 3 4 3 3 3 3 3 5 5 7 6 6 6 5 5 4 3 2 2 2 2 2 1 1 1 1 1 1 1 1 1 1 1 1 1 1 1 1 1 1 1
1 2 1 2 3 2 2 3 3 3 4 4 5 5 6 5 4 4 3 2 2 2 1 1 1 1 1 1 1 1 1 1 1 1 1 1 0 0 0 0 0 0 0 0
1 1 2 3 2 2 3 4 3 3 3 4 4 5 5 4 4 3 3 2 2 1 1 1 1 1 1 0 0 0 0 0 0 0 0 0 -0 -0 -0 -0 -0 -0 -0 -0
-0 1 1 2 2 3 6 3 3 3 3 3 3 4 4 4 3 2 2 2 1 1 1 1 1 0 0 -0 -0 -0 -0 -0 -0 -0 -0 -0 -1 -1 -1 -1 -1 -1 -1 -1
0 0 1 1 3 4 4 2 2 2 3 3 3 3 3 2 2 2 2 1 1 1 0 0 0 0 -0 -0 -1 -1 -1 -1 -1 -1 -1 -1 -1 -1 -1 -1 -1 -1 -1 -1
-1 -0 1 1 2 4 5 2 1 2 3 3 2 2 2 1 3 3 2 1 1 0 0 -0 -0 -0 -1 -1 -1 -1 -1 -1 -1 -1 -1 -1 -1 -1 -1 -2 -2 -2 -2 -2
-1 -0 0 1 2 4 3 1 1 3 4 2 2 2 1 1 2 1 1 0 0 -0 -0 -0 -0 -0 -1 -1 -1 -1 -1 -1 -1 -1 -1 -1 -2 -2 -2 -2 -2 -2 -2 -2
1 1 0 1 2 3 1 0 2 3 2 1 1 1 1 1 1 0 0 -0 -0 -0 -0 -1 -1 -1 -1 -1 -1 -1 -1 -2 -2 -2 -2 -2 -2 -2 -2 -2 -2 -3 -3 -3
1 1 2 2 3 2 0 1 1 1 1 1 1 1 1 0 0 -0 -0 -0 -1 -1 -1 -1 -1 -1 -1 -1 -2 -2 -2 -2 -2 -2 -2 -2 -2 -2 -3 -3 -3 -3 -3 -3
-0 -1 -0 -0 1 1 -0 0 1 1 1 1 1 1 0 0 -0 -0 -1 -1 -1 -1 -1 -1 -1 -2 -2 -2 -2 -2 -2 -2 -2 -2 -2 -3 -3 -3 -3 -3 -3 -3 -3 -3
1 -1 -1 -0 0 -0 -0 -0 1 1 1 1 0 0 0 -0 -0 -1 -1 -1 -1 -1 -2 -2 -2 -2 -2 -2 -2 -2 -2 -2 -3 -3 -3 -3 -3 -3 -3 -3 -3 -3 -3 -3
-1 -1 0 2 1 1 1 1 1 0 0 0 0 -0 -0 -0 -1 -1 -1 -1 -1 -2 -2 -2 -2 -2 -2 -2 -2 -2 -3 -3 -3 -3 -3 -3 -3 -4 -4 -4 -4 -4 -4 -4
Wind_Speed
2 4 6 7 8 6 5 7 9 7 4 6 11 13 12 9 8 8 7 7 6 6 5 3 3 3 3 3 4 4 4 3 3 3 3 3 3 2 2 2 3 3 3 4
4 7 6 5 5 5 7 8 9 7 4 6 9 13 12 9 9 9 8 8 6 5 4 4 3 3 3 4 4 4 4 4 4 4 4 3 3 2 2 2 3 3 4 4
8 3 4 5 6 7 8 9 8 7 6 5 8 10 8 6 6 7 7 7 6 6 6 4 4 3 4 4 4 4 4 4 5 4 3 3 2 2 2 2 2 3 4 4
5 4 5 6 7 7 8 5 6 6 5 4 3 7 7 6 6 7 7 6 6 5 5 4 3 3 4 4 4 4 3 4 4 4 5 5 4 4 3 3 2 2 2 3
4 4 5 7 6 6 4 2 4 6 6 6 5 6 7 5 7 7 6 5 4 4 4 4 3 3 3 3 2 2 2 3 3 4 5 5 4 3 2 3 3 2 1 2
3 2 4 4 3 4 2 2 1 3 4 6 6 7 7 5 6 5 4 3 2 2 2 2 2 2 2 1 1 1 2 3 3 4 4 5 5 4 4 3 3 2 1 1
4 4 2 2 3 4 3 3 2 3 4 5 3 6 8 4 3 4 3 2 2 1 1 1 1 1 1 1 1 2 2 2 2 3 4 5 5 5 5 4 4 3 2 2
4 5 4 3 4 4 5 5 4 4 5 4 4 8 5 2 2 2 2 1 1 1 1 1 1 2 2 2 2 2 2 2 2 2 3 4 4 3 3 4 3 3 3 3
5 4 2 2 2 3 5 5 2 1 2 5 6 6 6 2 2 2 2 1 1 1 1 1 1 1 1 1 1 2 2 2 1 2 2 3 3 3 3 3 3 2 2 2
3 3 3 2 2 1 2 4 3 3 4 6 6 7 5 4 4 3 3 2 2 1 1 1 1 1 1 1 1 1 2 1 1 1 2 2 2 3 3 3 3 3 3 3
3 3 3 4 6 6 4 5 4 3 3 5 6 5 2 4 4 4 3 3 2 2 2 1 1 1 1 0 0 1 1 1 1 1 2 2 2 2 3 3 3 3 3 3
3 3 4 4 2 3 5 6 6 4 5 5 5 6 1 3 3 3 3 3 3 3 2 2 1 1 1 1 1 1 1 1 2 1 1 2 1 2 2 3 3 3 3 3
4 4 3 3 4 4 4 5 5 2 3 6 7 6 1 1 3 4 4 3 3 3 2 2 1 1 1 1 2 2 2 2 2 1 1 1 1 2 3 3 3 3 3 3
4 4 6 8 4 5 6 7 8 6 6 8 12 12 8 6 6 6 5 5 4 3 3 3 3 2 2 2 2 2 2 2 2 1 1 2 2 2 3 3 2 3 3 3
4 4 5 7 6 5 8 10 11 12 13 12 12 13 13 10 9 8 7 5 4 4 4 4 4 3 3 3 3 2 2 2 2 2 2 2 2 2 2 2 2 2 3 3
3 3 2 4 5 6 9 13 14 14 14 16 16 16 11 9 7 7 6 5 5 5 5 4 4 3 3 3 3 3 3 3 2 2 2 2 2 2 2 2 2 2 3 3
4 4 3 4 2 4 9 11 14 10 11 11 14 12 7 7 7 7 6 6 6 6 5 5 4 4 3 3 3 3 3 3 2 3 2 2 2 2 2 2 2 3 3 3
5 4 3 2 1 7 4 1 7 10 10 11 11 10 8 7 6 6 6 6 6 6 5 5 4 3 3 3 3 3 2 2 2 2 2 2 2 2 2 2 3 3 3 3
7 6 4 3 5 8 5 3 5 7 8 9 12 11 8 4 5 5 5 5 5 5 4 4 3 3 3 3 2 2 2 2 2 3 3 3 3 3 3 3 3 3 3 3
4 5 5 5 5 7 3 1 2 3 6 5 8 9 6 3 4 4 1 2 3 3 3 2 2 2 3 3 2 2 3 3 3 3 3 3 3 3 4 4 4 3 3 4
5 5 7 8 8 8 3 3 5 5 4 1 5 6 6 6 5 2 2 2 2 2 2 2 2 2 3 3 2 3 3 3 3 3 3 3 3 3 4 4 3 3 3 4
8 7 8 7 8 8 4 7 7 5 2 3 4 5 6 5 4 3 3 2 1 2 2 1 1 2 2 2 2 3 3 3 3 2 2 3 3 3 3 3 3 3 3 3
8 7 5 8 7 2 6 6 4 3 4 4 4 4 5 4 5 4 3 2 2 2 2 1 2 2 2 2 2 3 3 3 2 2 2 2 3 3 3 3 3 3 3 3
5 3 4 6 8 7 7 6 6 5 5 5 4 4 5 5 5 4 3 3 2 2 2 1 2 2 3 3 2 3 3 3 2 3 3 2 3 3 3 3 3 3 3 3
6 6 5 8 8 7 8 9 9 7 6 5 4 4 5 5 4 4 3 3 3 2 2 2 3 3 3 3 3 3 3 2 2 3 3 3 2 3 3 3 3 3 4 4
7 8 8 9 8 7 6 5 6 6 6 6 5 4 4 4 4 4 4 3 3 3 3 3 3 3 3 3 3 3 3 3 3 2 3 2 2 2 2 2 3 3 5 5
Wind_Direction
176 204 216 218 223 242 242 241 255 263 275 264 259 268 275 267 254 249 243 235 233 236 232 223 217 204 203 204 203 201 194 189 188 194 199 198 202 203 203 209 210 204 204 197
194 228 234 221 212 221 232 242 257 270 275 267 272 273 273 261 247 244 242 237 232 232 227 220 211 202 208 210 210 212 206 200 203 207 207 212 209 214 212 209 220 215 213 205
216 225 200 203 211 228 239 244 254 267 287 263 282 269 256 254 243 244 243 240 235 229 232 227 214 210 217 221 219 218 213 210 209 203 189 176 184 198 208 220 225 224 219 210
224 232 211 214 227 230 247 244 247 255 263 270 270 275 260 251 250 243 240 235 234 230 232 231 225 221 228 229 223 224 218 216 211 199 193 187 196 209 220 215 212 216 216 205
220 214 215 227 236 226 242 251 240 243 245 265 245 254 263 240 249 245 237 230 231 230 234 237 234 228 235 232 220 224 220 218 208 202 201 201 208 212 205 196 193 198 199 200
242 233 232 235 233 214 185 178 196 221 232 248 237 235 261 241 243 244 231 231 235 233 236 241 233 215 223 221 208 217 219 222 212 200 203 209 208 204 198 198 198 203 200 201
226 214 208 207 195 180 199 209 235 224 223 243 203 234 254 258 261 245 238 245 255 240 224 229 220 202 214 218 206 214 219 226 218 204 207 213 214 211 211 210 208 208 207 215
221 221 195 205 219 211 208 212 222 246 250 263 221 238 256 271 277 235 237 243 231 231 234 227 225 211 212 213 209 214 224 226 221 214 218 215 212 211 214 216 214 215 218 220
215 219 164 217 249 212 186 201 242 226 263 262 246 258 275 243 237 209 212 214 230 257 255 252 242 231 214 205 212 224 232 228 229 235 226 223 215 210 207 208 208 211 216 215
210 225 200 203 192 228 243 168 178 202 231 254 255 255 246 225 226 221 229 253 261 270 283 289 278 271 255 228 244 257 251 242 262 259 246 235 220 209 207 204 205 213 222 221
210 202 195 196 208 209 179 180 192 205 249 252 264 258 209 207 215 221 238 264 273 276 289 301 306 308 304 327 266 247 260 287 290 271 258 236 221 209 211 215 216 219 223 223
194 195 222 224 236 268 222 203 190 211 227 239 260 266 114 208 228 240 254 267 276 289 291 291 298 308 319 315 294 279 281 291 282 265 253 249 234 221 220 227 227 224 226 227
164 174 202 207 201 198 214 209 210 201 203 220 236 255 111 243 259 260 259 275 284 295 297 288 281 280 285 291 295 288 284 290 279 249 239 245 237 229 230 236 236 236 234 234
176 201 223 239 247 198 220 218 211 205 222 233 238 256 266 267 276 280 278 281 280 284 285 276 272 274 279 281 283 284 283 283 276 244 230 242 240 235 238 239 237 243 245 245
190 221 237 260 261 235 237 229 216 222 230 239 251 255 264 269 271 272 268 270 272 276 275 267 262 268 278 283 285 286 283 280 274 252 238 249 256 251 244 239 237 243 250 255
195 213 224 256 249 246 255 243 229 233 239 245 259 265 271 275 269 269 262 254 262 268 271 268 261 263 269 276 282 287 281 276 265 255 252 257 258 259 250 242 239 243 251 254
183 180 205 243 258 279 256 236 219 221 224 230 243 255 268 268 261 264 262 253 254 263 267 263 256 255 259 264 271 273 278 276 263 257 256 257 255 257 259 253 246 251 258 260
181 178 201 233 215 241 256 215 216 224 237 233 247 260 259 260 273 272 259 256 260 265 261 259 258 257 258 265 274 277 275 267 257 253 254 256 256 263 268 261 256 261 264 264
203 183 191 204 239 266 271 223 201 213 250 237 240 253 265 284 288 270 247 240 254 260 256 254 256 261 266 269 268 267 271 264 252 251 254 257 257 262 265 262 261 261 261 266
188 191 199 203 230 247 259 172 188 193 259 235 228 240 243 220 253 272 254 267 278 276 260 249 258 270 273 274 263 255 263 259 256 259 261 262 259 257 259 261 265 264 261 264
170 190 211 220 236 260 260 165 165 205 259 232 215 224 213 216 245 286 299 294 290 286 273 252 244 251 259 259 249 251 261 267 272 269 266 264 259 258 256 259 258 255 255 260
190 190 202 205 224 247 168 161 201 242 295 240 226 226 225 233 253 264 267 269 274 290 288 266 253 272 278 264 247 253 268 283 283 269 263 264 266 266 258 252 252 248 248 255
212 208 204 207 226 285 183 211 237 251 251 250 241 238 224 232 244 247 251 254 263 270 274 267 251 274 290 280 255 256 275 282 278 269 267 270 271 264 255 249 247 248 248 252
228 222 217 240 256 258 243 252 257 251 252 251 246 238 224 233 237 241 243 247 255 260 257 248 247 263 284 291 280 265 271 269 261 269 275 271 264 266 262 255 249 246 250 253
227 195 221 247 267 278 259 247 248 252 253 245 241 236 229 224 231 229 234 241 246 254 256 242 244 255 270 280 280 278 268 256 255 262 266 268 265 266 268 264 258 254 254 255
224 214 219 244 245 235 255 255 238 235 240 236 227 232 232 221 222 230 236 240 240 243 247 247 252 255 266 270 275 278 264 246 242 253 263 265 265 266 267 272 278 260 256 268
Height
1506 1505 1501 1501 1502 1502 1501 1501 1498 1499 1503 1504 1498 1495 1493 1494 1494 1493 1493 1493 1493 1493 1494 1494 1494 1494 1495 1495 1495 1496 1496 1497 1498 1498 1499 1500 1500 1501 1502 1503 1503 1504 1505 1505
1503 1501 1502 1503 1504 1504 1503 1501 1498 1499 1503 1502 1497 1492 1489 1489 1489 1489 1489 1489 1490 1491 1491 1491 1491 1491 1491 1492 1492 1493 1493 1494 1495 1495 1496 1497 1497 1498 1498 1500 1500 1501 1501 1502
1497 1500 1502 1503 1502 1502 1501 1499 1498 1499 1501 1500 1498 1485 1484 1484 1486 1486 1486 1486 1487 1487 1488 1488 1488 1488 1488 1489 1489 1489 1490 1491 1491 1492 1493 1494 1494 1495 1496 1496 1497 1497 1498 1499
1499 1501 1501 1501 1500 1501 1497 1500 1501 1502 1500 1494 1497 1485 1477 1480 1481 1481 1482 1483 1483 1484 1484 1484 1485 1485 1486 1486 1486 1486 1487 1488 1488 1489 1489 1490 1490 1491 1492 1493 1493 1494 1494 1495
1497 1500 1499 1498 1498 1500 1498 1502 1502 1502 1499 1498 1495 1492 1473 1477 1476 1475 1478 1479 1480 1480 1481 1481 1482 1482 1483 1483 1483 1483 1484 1485 1485 1486 1486 1487 1488 1488 1489 1489 1490 1491 1491 1492
1498 1500 1499 1498 1500 1501 1502 1502 1502 1501 1499 1495 1489 1488 1470 1469 1471 1472 1475 1477 1477 1478 1478 1479 1479 1480 1480 1480 1481 1481 1482 1482 1482 1483 1483 1484 1484 1485 1485 1486 1486 1487 1488 1488
1495 1497 1499 1499 1498 1500 1500 1497 1493 1490 1489 1481 1490 1488 1471 1469 1472 1473 1474 1475 1476 1476 1476 1476 1476 1476 1477 1477 1478 1478 1479 1479 1479 1479 1480 1481 1481 1482 1482 1483 1483 1484 1484 1485
1489 1489 1495 1497 1495 1495 1496 1493 1490 1485 1478 1474 1488 1481 1468 1472 1473 1474 1475 1475 1475 1475 1474 1474 1474 1474 1475 1475 1475 1476 1476 1476 1476 1477 1477 1478 1479 1479 1479 1480 1480 1481 1481 1482
1485 1487 1496 1497 1497 1495 1493 1492 1494 1494 1496 1489 1473 1472 1470 1471 1472 1473 1474 1474 1473 1473 1473 1473 1472 1472 1472 1472 1473 1473 1474 1474 1474 1474 1475 1475 1475 1476 1476 1477 1477 1478 1478 1479
1487 1490 1493 1496 1496 1497 1494 1494 1495 1492 1486 1475 1468 1468 1462 1467 1468 1470 1472 1472 1472 1472 1472 1472 1471 1471 1471 1470 1471 1472 1472 1472 1472 1472 1472 1472 1472 1473 1473 1473 1474 1474 1475 1475
1489 1490 1492 1494 1492 1490 1495 1495 1493 1490 1489 1479 1468 1461 1462 1465 1467 1469 1470 1471 1471 1471 1470 1470 1470 1469 1469 1469 1470 1470 1470 1469 1469 1469 1469 1469 1469 1470 1470 1470 1470 1471 1471 1472
1488 1487 1486 1488 1492 1493 1490 1489 1490 1488 1489 1488 1475 1466 1465 1467 1468 1469 1470 1470 1470 1470 1469 1469 1468 1468 1468 1468 1468 1468 1467 1467 1467 1467 1467 1466 1466 1467 1467 1467 1468 1468 1468 1468
1488 1489 1484 1482 1490 1494 1491 1490 1491 1492 1490 1485 1476 1464 1466 1467 1467 1468 1469 1469 1468 1468 1467 1467 1466 1466 1466 1466 1466 1465 1465 1465 1465 1464 1464 1464 1464 1464 1464 1464 1465 1465 1465 1465
1485 1486 1480 1470 1468 1479 1485 1487 1489 1489 1484 1478 1471 1462 1464 1465 1466 1466 1466 1466 1466 1466 1465 1465 1464 1464 1464 1464 1463 1463 1463 1462 1462 1462 1462 1462 1461 1461 1462 1461 1462 1462 1462 1462
1484 1482 1482 1479 1479 1480 1479 1480 1483 1483 1475 1472 1462 1463 1460 1462 1463 1464 1464 1463 1463 1463 1463 1463 1462 1462 1461 1461 1461 1460 1460 1460 1460 1459 1459 1459 1459 1459 1459 1458 1458 1459 1459 1459
1483 1482 1483 1481 1479 1479 1479 1475 1476 1476 1473 1468 1465 1462 1459 1461 1462 1461 1460 1461 1460 1460 1460 1460 1459 1459 1459 1458 1458 1457 1457 1457 1457 1457 1457 1456 1456 1456 1456 1455 1455 1455 1455 1455
1480 1482 1479 1472 1478 1478 1468 1463 1466 1467 1465 1463 1460 1456 1457 1458 1458 1458 1457 1457 1457 1457 1457 1457 1456 1456 1456 1456 1455 1455 1455 1454 1454 1454 1454 1453 1453 1453 1452 1452 1452 1452 1452 1451
1479 1479 1479 1476 1478 1469 1453 1459 1458 1459 1459 1459 1457 1455 1455 1455 1455 1455 1455 1455 1454 1454 1454 1454 1453 1453 1453 1453 1453 1452 1452 1451 1451 1451 1450 1450 1450 1449 1449 1449 1449 1449 1448 1448
1475 1476 1476 1475 1467 1455 1453 1457 1458 1459 1455 1454 1453 1452 1453 1454 1453 1452 1451 1451 1452 1451 1451 1451 1451 1451 1450 1450 1450 1449 1448 1448 1448 1447 1447 1447 1446 1446 1446 1446 1445 1445 1445 1444
1474 1474 1474 1472 1465 1454 1447 1454 1455 1457 1452 1448 1449 1449 1450 1452 1451 1448 1449 1449 1449 1449 1448 1448 1448 1448 1448 1447 1447 1446 1445 1445 1445 1444 1444 1444 1443 1443 1443 1442 1442 1442 1441 1441
1472 1471 1470 1466 1461 1449 1449 1453 1455 1453 1444 1445 1446 1447 1448 1449 1448 1448 1447 1446 1446 1446 1446 1446 1445 1445 1445 1445 1444 1443 1443 1442 1442 1442 1441 1440 1440 1440 1439 1439 1439 1439 1438 1438
1459 1461 1463 1461 1458 1449 1448 1451 1449 1444 1443 1443 1444 1444 1445 1445 1445 1445 1444 1444 1444 1443 1443 1443 1443 1443 1443 1442 1442 1441 1440 1440 1439 1439 1438 1437 1437 1437 1437 1436 1436 1436 1435 1435
1454 1451 1449 1450 1446 1443 1444 1443 1442 1442 1442 1442 1442 1442 1442 1442 1442 1442 1442 1442 1441 1441 1441 1441 1441 1441 1441 1440 1440 1439 1438 1437 1437 1436 1435 1435 1434 1434 1434 1433 1433 1433 1432 1431
1450 1451 1449 1448 1442 1441 1441 1440 1440 1440 1439 1439 1440 1440 1440 1440 1440 1440 1440 1439 1439 1439 1439 1439 1439 1439 1438 1438 1437 1437 1436 1435 1434 1434 1433 1433 1432 1432 1431 1431 1430 1430 1429 1429
1442 1447 1445 1443 1439 1439 1437 1436 1436 1436 1436 1436 1437 1437 1437 1437 1437 1437 1437 1437 1437 1437 1437 1437 1437 1436 1436 1436 1435 1435 1434 1433 1432 1431 1431 1430 1430 1429 1428 1428 1427 1427 1427 1426
1438 1439 1438 1433 1433 1434 1432 1431 1432 1432 1433 1433 1434 1434 1434 1435 1435 1435 1435 1435 1435 1435 1434 1435 1435 1434 1434 1433 1433 1432 1432 1431 1430 1429 1428 1428 1427 1426 1426 1425 1424 1424 1424 1423